This is the latest recevied weather packets stored in our database for station/object OK0EK-11. If no packets are shown the sender has not sent any weather packets the latest 10 day(s).
| Time | Temp. | Humidity | Pressure | Rain* | Wind** | Luminosity | Snow |
|---|---|---|---|---|---|---|---|
| 1777994836 | 18.33° C | 48% | 1010.6 hPa | - | - | - | - |
| 1777994237 | 18.33° C | 47% | 1010.7 hPa | - | - | - | - |
| 1777993637 | 17.78° C | 45% | 1010.9 hPa | - | - | - | - |
| 1777993037 | 18.33° C | 42% | 1011 hPa | - | - | - | - |
| 1777992437 | 17.78° C | 39% | 1010.9 hPa | - | - | - | - |
| 1777991839 | 18.33° C | 35% | 1011.2 hPa | - | - | - | - |
| 1777991239 | 18.33° C | 35% | 1011 hPa | - | - | - | - |
| 1777990639 | 18.33° C | 36% | 1010.8 hPa | - | - | - | - |
| 1777990040 | 18.89° C | 37% | 1011.1 hPa | - | - | - | - |
| 1777989441 | 19.44° C | 37% | 1011.1 hPa | - | - | - | - |
| 1777988841 | 18.89° C | 38% | 1011.4 hPa | - | - | - | - |
| 1777988300 | 18.89° C | 38% | 1011.3 hPa | - | - | - | - |
| 1777988242 | 18.89° C | 38% | 1011.3 hPa | - | - | - | - |
| 1777987642 | 19.44° C | 37% | 1011.2 hPa | - | - | - | - |
| 1777987044 | 19.44° C | 38% | 1011.3 hPa | - | - | - | - |
| 1777986451 | 18.89° C | 38% | 1011.3 hPa | - | - | - | - |
| 1777986444 | 18.89° C | 38% | 1011.3 hPa | - | - | - | - |
| 1777986343 | 19.44° C | 38% | 1011.6 hPa | - | - | - | - |
| 1777985844 | 19.44° C | 38% | 1011.6 hPa | - | - | - | - |
| 1777985244 | 18.89° C | 39% | 1011.1 hPa | - | - | - | - |
| 1777984645 | 19.44° C | 39% | 1011.5 hPa | - | - | - | - |
| 1777984045 | 18.33° C | 39% | 1011.8 hPa | - | - | - | - |
| 1777983445 | 18.33° C | 39% | 1011.7 hPa | - | - | - | - |
| 1777982845 | 18.89° C | 38% | 1011.7 hPa | - | - | - | - |
| 1777982246 | 18.89° C | 38% | 1012 hPa | - | - | - | - |
* Rain since midnight (hover to see other rain measurements)
** Current wind speed in m/s (hover to see current wind gust speed)